.
WxDataArchive / Data Records for 2010-02-05
2010-02-04 February 2010 2010-02-06

Data Records for Friday, 05 February 2010

Time	Temp	Chill	HIndex	Humid	Dewpt	 Wind 	HiWind	WindDir	Rain 	Barom 
-----	----	-----	------	-----	-----	------	------	-------	-----	----- 
00:00	30.4	30.4	30.4	83	25.9	2	7	112	0.00	30.278 
00:05	30.4	30.4	30.4	83	25.9	2	4	112	0.00	30.278 
00:10	30.3	30.3	30.3	83	25.8	2	4	112	0.00	30.278 
00:15	30.3	30.3	30.3	83	25.8	1	4	112	0.00	30.263 
00:20	30.1	30.1	30.1	83	25.6	2	6	112	0.00	30.263 
00:25	30.1	30.1	30.1	84	25.9	2	4	112	0.00	30.263 
00:30	30.0	30.0	30.0	84	25.8	1	3	112	0.00	30.272 
00:35	30.0	30.0	30.0	84	25.8	1	4	112	0.00	30.272 
00:40	30.0	30.0	30.0	84	25.8	1	4	112	0.00	30.272 
00:45	30.0	30.0	30.0	84	25.8	2	4	112	0.00	30.265 
00:50	30.0	30.0	30.0	84	25.8	1	5	90	0.00	30.265 
00:55	30.0	30.0	30.0	84	25.8	2	4	112	0.00	30.265 
01:00	30.0	30.0	30.0	84	25.8	1	3	112	0.00	30.262 
01:05	30.0	30.0	30.0	84	25.8	2	4	112	0.00	30.262 
01:10	29.8	29.8	29.8	84	25.6	2	5	90	0.00	30.262 
01:15	29.8	29.8	29.8	84	25.6	2	4	90	0.00	30.254 
01:20	29.8	29.8	29.8	85	25.9	1	3	90	0.00	30.254 
01:25	29.8	29.8	29.8	85	25.9	1	4	90	0.00	30.254 
01:30	29.7	29.7	29.7	85	25.8	2	5	112	0.00	30.251 
01:35	29.7	29.7	29.7	85	25.8	1	4	112	0.00	30.251 
01:40	29.7	29.7	29.7	85	25.8	2	5	90	0.00	30.251 
01:45	29.7	29.7	29.7	85	25.8	1	4	112	0.00	30.248 
01:50	29.7	29.7	29.7	85	25.8	1	4	112	0.00	30.248 
01:55	29.7	29.7	29.7	85	25.8	1	5	90	0.00	30.248 
02:00	29.5	29.5	29.5	86	25.8	1	3	90	0.00	30.244 
02:05	29.5	29.5	29.5	86	25.8	2	4	112	0.00	30.244 
02:10	29.5	29.5	29.5	86	25.8	2	5	112	0.00	30.244 
02:15	29.5	29.5	29.5	86	25.8	2	5	90	0.00	30.239 
02:20	29.5	29.5	29.5	86	25.8	2	5	112	0.00	30.239 
02:25	29.5	29.5	29.5	86	25.8	1	3	90	0.00	30.239 
02:30	29.5	29.5	29.5	86	25.8	2	5	90	0.00	30.243 
02:35	29.5	29.5	29.5	86	25.8	1	4	112	0.00	30.243 
02:40	29.5	29.5	29.5	86	25.8	1	4	112	0.00	30.243 
02:45	29.7	29.7	29.7	85	25.8	2	5	90	0.00	30.232 
02:50	29.7	29.7	29.7	85	25.8	2	4	90	0.00	30.232 
02:55	29.7	29.7	29.7	85	25.8	2	5	90	0.00	30.232 
03:00	29.7	29.7	29.7	85	25.8	1	4	112	0.00	30.227 
03:05	29.7	29.7	29.7	85	25.8	1	4	112	0.00	30.227 
03:10	29.5	29.5	29.5	85	25.6	1	5	112	0.00	30.227 
03:15	29.5	29.5	29.5	85	25.6	1	4	90	0.00	30.217 
03:20	29.5	29.5	29.5	85	25.6	1	4	90	0.00	30.217 
03:25	29.5	29.5	29.5	85	25.6	1	4	90	0.00	30.217 
03:30	29.4	29.4	29.4	85	25.5	1	2	90	0.00	30.210 
03:35	29.4	29.4	29.4	85	25.5	1	4	90	0.00	30.210 
03:40	29.4	29.4	29.4	85	25.5	1	4	90	0.00	30.210 
03:45	29.4	29.4	29.4	85	25.5	2	5	90	0.00	30.195 
03:50	29.4	29.4	29.4	85	25.5	1	4	90	0.00	30.195 
03:55	29.4	29.4	29.4	85	25.5	1	4	90	0.00	30.195 
04:00	29.3	29.3	29.3	85	25.4	1	4	90	0.00	30.184 
04:05	29.3	29.3	29.3	85	25.4	1	4	90	0.00	30.184 
04:10	29.3	29.3	29.3	85	25.4	1	6	90	0.00	30.184 
04:15	29.1	29.1	29.1	85	25.2	2	5	112	0.00	30.178 
04:20	29.1	29.1	29.1	85	25.2	1	3	90	0.00	30.178 
04:25	29.1	29.1	29.1	85	25.2	1	3	90	0.00	30.178 
04:30	29.1	29.1	29.1	85	25.2	1	5	112	0.00	30.174 
04:35	29.1	29.1	29.1	85	25.2	1	9	90	0.00	30.174 
04:40	29.1	29.1	29.1	85	25.2	1	4	112	0.00	30.174 
04:45	29.1	29.1	29.1	84	24.9	3	6	112	0.00	30.170 
04:50	29.1	29.1	29.1	84	24.9	2	5	90	0.00	30.170 
04:55	29.1	29.1	29.1	84	24.9	2	7	90	0.00	30.170 
05:00	29.1	29.1	29.1	84	24.9	2	5	112	0.00	30.168 
05:05	29.1	29.1	29.1	84	24.9	3	6	112	0.00	30.168 
05:10	29.1	29.1	29.1	84	24.9	3	6	112	0.00	30.168 
05:15	29.1	29.1	29.1	84	24.9	1	4	112	0.00	30.167 
05:20	29.1	29.1	29.1	84	24.9	1	6	90	0.00	30.167 
05:25	29.1	29.1	29.1	84	24.9	3	6	90	0.00	30.167 
05:30	29.1	29.1	29.1	83	24.6	2	9	112	0.00	30.168 
05:35	29.1	29.1	29.1	83	24.6	3	11	90	0.00	30.168 
05:40	29.1	29.1	29.1	83	24.6	3	6	112	0.00	30.168 
05:45	29.1	29.1	29.1	83	24.6	3	12	90	0.00	30.162 
05:50	29.1	29.1	29.1	83	24.6	2	7	112	0.00	30.162 
05:55	29.1	29.1	29.1	83	24.6	3	7	112	0.00	30.162 
06:00	29.3	29.3	29.3	83	24.8	3	10	112	0.00	30.155 
06:05	29.3	29.3	29.3	82	24.5	3	12	112	0.00	30.155 
06:10	29.3	29.3	29.3	82	24.5	3	6	90	0.00	30.155 
06:15	29.3	25.0	29.3	82	24.5	4	11	112	0.00	30.155 
06:20	29.3	25.0	29.3	82	24.5	4	7	112	0.00	30.155 
06:25	29.3	29.3	29.3	82	24.5	3	7	112	0.00	30.155 
06:30	29.3	29.3	29.3	82	24.5	3	6	112	0.00	30.152 
06:35	29.3	29.3	29.3	82	24.5	2	6	112	0.00	30.152 
06:40	29.3	29.3	29.3	82	24.5	3	11	90	0.00	30.152 
06:45	29.3	29.3	29.3	81	24.2	3	11	90	0.00	30.152 
06:50	29.3	29.3	29.3	81	24.2	3	7	112	0.00	30.152 
06:55	29.3	29.3	29.3	81	24.2	3	9	112	0.00	30.152 
07:00	29.3	29.3	29.3	81	24.2	3	6	90	0.00	30.151 
07:05	29.3	29.3	29.3	81	24.2	3	6	90	0.00	30.151 
07:10	29.3	29.3	29.3	81	24.2	3	7	90	0.00	30.151 
07:15	29.3	29.3	29.3	81	24.2	2	8	90	0.00	30.144 
07:20	29.3	29.3	29.3	81	24.2	2	11	90	0.00	30.144 
07:25	29.3	29.3	29.3	80	23.9	3	11	90	0.00	30.144 
07:30	29.3	29.3	29.3	80	23.9	3	7	112	0.00	30.141 
07:35	29.3	29.3	29.3	80	23.9	3	10	90	0.00	30.141 
07:40	29.3	25.0	29.3	80	23.9	4	9	90	0.00	30.141 
07:45	29.3	29.3	29.3	80	23.9	2	7	112	0.00	30.136 
07:50	29.3	29.3	29.3	79	23.6	3	7	135	0.00	30.136 
07:55	29.3	29.3	29.3	79	23.6	2	6	90	0.00	30.136 
08:00	29.3	29.3	29.3	79	23.6	3	9	90	0.00	30.130 
08:05	29.3	29.3	29.3	79	23.6	3	9	90	0.00	30.130 
08:10	29.4	29.4	29.4	79	23.7	3	11	112	0.00	30.130 
08:15	29.4	29.4	29.4	78	23.4	2	10	90	0.00	30.127 
08:20	29.4	29.4	29.4	78	23.4	3	9	112	0.00	30.127 
08:25	29.4	24.0	29.4	78	23.4	5	11	90	0.00	30.127 
08:30	29.5	29.5	29.5	78	23.5	2	6	112	0.00	30.118 
08:35	29.5	25.2	29.5	77	23.2	4	11	90	0.00	30.118 
08:40	29.5	25.2	29.5	77	23.2	4	10	112	0.00	30.118 
08:45	29.7	25.4	29.7	77	23.4	4	13	112	0.00	30.110 
08:50	29.7	25.4	29.7	77	23.4	4	9	112	0.00	30.110 
08:55	29.8	29.8	29.8	77	23.5	3	11	112	0.00	30.110 
09:00	29.8	29.8	29.8	77	23.5	2	9	112	0.00	30.112 
09:05	30.0	30.0	30.0	77	23.7	3	7	112	0.00	30.112 
09:10	30.0	30.0	30.0	76	23.4	3	8	112	0.00	30.112 
09:15	30.1	30.1	30.1	76	23.5	3	10	90	0.00	30.122 
09:20	30.3	30.3	30.3	76	23.7	3	9	90	0.00	30.122 
09:25	30.3	30.3	30.3	75	23.3	3	9	90	0.00	30.122 
09:30	30.4	25.2	30.4	75	23.4	5	11	112	0.00	30.107 
09:35	30.6	25.4	30.6	74	23.3	5	13	112	0.00	30.107 
09:40	30.7	30.7	30.7	74	23.4	3	13	90	0.00	30.107 
09:45	30.9	26.8	30.9	74	23.6	4	11	112	0.00	30.101 
09:50	31.0	31.0	31.0	74	23.7	3	8	112	0.00	30.101 
09:55	31.0	31.0	31.0	73	23.4	3	8	112	0.00	30.101 
10:00	31.2	27.2	31.2	73	23.6	4	12	90	0.00	30.104 
10:05	31.3	27.3	31.3	73	23.7	4	12	112	0.00	30.104 
10:10	31.3	27.3	31.3	73	23.7	4	13	112	0.00	30.104 
10:15	31.5	26.5	31.5	72	23.5	5	12	112	0.00	30.089 
10:20	31.5	31.5	31.5	73	23.9	3	9	112	0.00	30.089 
10:25	31.5	25.6	31.5	72	23.5	6	14	112	0.00	30.089 
10:30	31.5	31.5	31.5	72	23.5	3	10	112	0.00	30.082 
10:35	31.5	26.5	31.5	72	23.5	5	14	90	0.00	30.082 
10:40	31.6	27.6	31.6	71	23.3	4	16	112	0.00	30.082 
10:45	31.6	27.6	31.6	71	23.3	4	10	112	0.00	30.076 
10:50	31.6	31.6	31.6	71	23.3	3	10	112	0.00	30.076 
10:55	31.8	27.8	31.8	71	23.5	4	14	112	0.00	30.076 
11:00	31.8	27.8	31.8	71	23.5	4	12	112	0.00	30.084 
11:05	31.8	27.8	31.8	71	23.5	4	14	90	0.00	30.084 
11:10	31.8	31.8	31.8	71	23.5	3	9	112	0.00	30.084 
11:15	31.8	26.8	31.8	70	23.2	5	17	90	0.00	30.072 
11:20	31.9	31.9	31.9	70	23.2	3	10	90	0.00	30.072 
11:25	31.9	27.0	31.9	70	23.2	5	12	112	0.00	30.072 
11:30	31.9	27.0	31.9	69	22.9	5	13	112	0.00	30.072 
11:35	31.9	28.0	31.9	70	23.2	4	12	112	0.00	30.072 
11:40	31.9	26.1	31.9	69	22.9	6	14	90	0.00	30.072 
11:45	31.9	25.4	31.9	69	22.9	7	15	112	0.00	30.050 
11:50	31.9	27.0	31.9	69	22.9	5	13	90	0.00	30.050 
11:55	32.1	27.2	32.1	69	23.1	5	13	112	0.00	30.050 
12:00	32.1	27.2	32.1	69	23.1	5	12	112	0.00	30.036 
12:05	32.2	27.3	32.2	69	23.2	5	12	112	0.00	30.036 
12:10	32.4	27.5	32.4	69	23.4	5	13	112	0.00	30.036 
12:15	32.5	27.7	32.5	68	23.1	5	12	112	0.00	30.029 
12:20	32.7	32.7	32.7	68	23.3	3	11	112	0.00	30.029 
12:25	32.7	27.1	32.7	67	23.0	6	12	90	0.00	30.029 
12:30	32.7	27.9	32.7	66	22.6	5	13	90	0.00	30.019 
12:35	32.8	32.8	32.8	67	23.1	3	9	90	0.00	30.019 
12:40	32.8	29.0	32.8	66	22.7	4	10	112	0.00	30.019 
12:45	32.9	32.9	32.9	65	22.4	3	11	90	0.00	30.017 
12:50	33.1	28.4	33.1	65	22.6	5	11	112	0.00	30.017 
12:55	33.1	33.1	33.1	65	22.6	2	9	112	0.00	30.017 
13:00	33.1	28.4	33.1	64	22.3	5	13	112	0.00	30.008 
13:05	33.2	33.2	33.2	65	22.7	3	12	90	0.00	30.008 
13:10	33.2	27.7	33.2	64	22.4	6	11	112	0.00	30.008 
13:15	33.2	29.5	33.2	64	22.4	4	15	112	0.00	30.001 
13:20	33.2	29.5	33.2	64	22.4	4	11	90	0.00	30.001 
13:25	33.4	29.7	33.4	64	22.6	4	11	112	0.00	30.001 
13:30	33.2	29.5	33.2	64	22.4	4	13	90	0.00	29.988 
13:35	33.2	33.2	33.2	64	22.4	3	10	90	0.00	29.988 
13:40	33.2	28.5	33.2	63	22.0	5	13	112	0.00	29.988 
13:45	33.4	28.7	33.4	63	22.2	5	13	112	0.00	29.972 
13:50	33.4	29.7	33.4	64	22.6	4	12	90	0.00	29.972 
13:55	33.4	28.7	33.4	64	22.6	5	12	112	0.00	29.972 
14:00	33.2	29.5	33.2	65	22.7	4	11	112	0.00	29.959 
14:05	33.1	29.3	33.1	65	22.6	4	14	90	0.00	29.959 
14:10	33.1	29.3	33.1	66	23.0	4	13	112	0.00	29.959 
14:15	32.9	29.1	32.9	66	22.8	4	13	90	0.00	29.939 
14:20	32.7	27.9	32.7	65	22.3	5	13	112	0.00	29.939 
14:25	32.7	28.9	32.7	67	23.0	4	11	112	0.00	29.939 
14:30	32.5	27.7	32.5	68	23.1	5	13	90	0.00	29.934 
14:35	32.2	28.3	32.2	70	23.5	4	16	112	0.00	29.934 
14:40	32.1	28.2	32.1	71	23.8	4	12	112	0.00	29.934 
14:45	31.9	28.0	31.9	70	23.2	4	12	112	0.00	29.918 
14:50	31.9	28.0	31.9	68	22.6	4	12	112	0.00	29.918 
14:55	32.1	28.2	32.1	67	22.4	4	12	112	0.00	29.918 
15:00	32.1	27.2	32.1	66	22.0	5	17	112	0.00	29.907 
15:05	32.1	27.2	32.1	66	22.0	5	12	112	0.00	29.907 
15:10	32.1	32.1	32.1	67	22.4	3	9	22	0.00	29.907 
15:15	32.1	28.2	32.1	67	22.4	4	17	112	0.00	29.902 
15:20	32.1	28.2	32.1	66	22.0	4	11	22	0.00	29.902 
15:25	32.1	28.2	32.1	66	22.0	4	13	112	0.00	29.902 
15:30	32.1	28.2	32.1	65	21.7	4	16	135	0.00	29.901 
15:35	32.1	28.2	32.1	66	22.0	4	12	45	0.00	29.901 
15:40	31.9	27.0	31.9	67	22.2	5	19	112	0.00	29.901 
15:45	31.8	26.8	31.8	66	21.8	5	14	45	0.00	29.902 
15:50	31.8	26.8	31.8	66	21.8	5	17	112	0.00	29.902 
15:55	31.8	26.8	31.8	67	22.1	5	12	112	0.00	29.902 
16:00	31.8	26.8	31.8	68	22.5	5	15	112	0.00	29.891 
16:05	31.6	27.6	31.6	69	22.6	4	11	112	0.00	29.891 
16:10	31.6	31.6	31.6	69	22.6	3	7	22	0.00	29.891 
16:15	31.5	27.5	31.5	71	23.2	4	11	90	0.00	29.900 
16:20	31.2	27.2	31.2	75	24.2	4	13	112	0.00	29.900 
16:25	30.7	26.6	30.7	78	24.7	4	17	90	0.00	29.900 
16:30	30.3	30.3	30.3	80	24.9	3	13	90	0.00	29.899 
16:35	30.0	24.7	30.0	82	25.2	5	17	112	0.00	29.899 
16:40	29.7	25.4	29.7	84	25.5	4	13	112	0.00	29.899 
16:45	29.5	25.2	29.5	84	25.3	4	12	112	0.00	29.890 
16:50	29.3	22.2	29.3	86	25.6	7	20	112	0.00	29.890 
16:55	29.0	23.6	29.0	87	25.6	5	11	112	0.00	29.890 
17:00	29.0	29.0	29.0	88	25.9	3	7	90	0.00	29.882 
17:05	28.8	23.3	28.8	88	25.7	5	14	112	0.00	29.882 
17:10	28.5	23.0	28.5	89	25.7	5	14	90	0.00	29.882 
17:15	28.5	23.0	28.5	89	25.7	5	16	112	0.00	29.878 
17:20	28.4	23.9	28.4	90	25.8	4	10	112	0.00	29.878 
17:25	28.4	22.8	28.4	90	25.8	5	13	45	0.00	29.878 
17:30	28.4	23.9	28.4	91	26.1	4	11	112	0.00	29.873 
17:35	28.4	28.4	28.4	91	26.1	3	10	112	0.00	29.873 
17:40	28.4	23.9	28.4	91	26.1	4	11	112	0.00	29.873 
17:45	28.4	28.4	28.4	92	26.4	3	15	112	0.00	29.871 
17:50	28.2	23.7	28.2	92	26.2	4	11	112	0.00	29.871 
17:55	28.2	28.2	28.2	92	26.2	3	9	22	0.00	29.871 
18:00	28.2	28.2	28.2	92	26.2	3	10	45	0.00	29.869 
18:05	28.1	23.6	28.1	92	26.1	4	16	68	0.00	29.869 
18:10	28.1	22.5	28.1	92	26.1	5	13	45	0.00	29.869 
18:15	27.9	23.3	27.9	92	25.9	4	10	22	0.00	29.858 
18:20	27.9	22.3	27.9	92	25.9	5	11	45	0.00	29.858 
18:25	27.9	23.3	27.9	93	26.1	4	12	112	0.00	29.858 
18:30	28.1	22.5	28.1	93	26.3	5	11	112	0.00	29.857 
18:35	28.1	23.6	28.1	93	26.3	4	14	112	0.00	29.857 
18:40	28.1	23.6	28.1	93	26.3	4	13	45	0.00	29.857 
18:45	28.1	23.6	28.1	93	26.3	4	16	90	0.00	29.853 
18:50	28.1	23.6	28.1	93	26.3	4	14	22	0.00	29.853 
18:55	28.2	22.6	28.2	93	26.4	5	16	45	0.00	29.853 
19:00	28.2	22.6	28.2	93	26.4	5	14	45	0.00	29.846 
19:05	28.4	23.9	28.4	93	26.6	4	11	22	0.00	29.846 
19:10	28.4	21.9	28.4	93	26.6	6	14	90	0.00	29.846 
19:15	28.4	21.9	28.4	93	26.6	6	13	45	0.00	29.850 
19:20	28.4	22.8	28.4	93	26.6	5	17	112	0.00	29.850 
19:25	28.4	21.9	28.4	93	26.6	6	18	112	0.00	29.850 
19:30	28.4	21.9	28.4	93	26.6	6	14	45	0.00	29.841 
19:35	28.4	22.8	28.4	93	26.6	5	11	112	0.00	29.841 
19:40	28.4	21.9	28.4	93	26.6	6	16	45	0.00	29.841 
19:45	28.4	22.8	28.4	93	26.6	5	13	90	0.00	29.842 
19:50	28.5	24.0	28.5	93	26.7	4	12	22	0.00	29.842 
19:55	28.5	24.0	28.5	93	26.7	4	12	45	0.00	29.842 
20:00	28.5	24.0	28.5	93	26.7	4	13	90	0.00	29.839 
20:05	28.4	22.8	28.4	93	26.6	5	12	22	0.00	29.839 
20:10	28.4	22.8	28.4	93	26.6	5	16	22	0.00	29.839 
20:15	28.4	21.9	28.4	93	26.6	6	16	68	0.00	29.824 
20:20	28.5	23.0	28.5	93	26.7	5	11	45	0.00	29.824 
20:25	28.5	22.1	28.5	93	26.7	6	15	22	0.00	29.824 
20:30	28.5	24.0	28.5	93	26.7	4	10	45	0.00	29.826 
20:35	28.5	24.0	28.5	93	26.7	4	14	45	0.00	29.826 
20:40	28.7	23.2	28.7	93	26.9	5	13	45	0.00	29.826 
20:45	28.7	23.2	28.7	93	26.9	5	15	45	0.00	29.818 
20:50	28.7	24.3	28.7	93	26.9	4	13	90	0.00	29.818 
20:55	28.7	22.3	28.7	93	26.9	6	15	112	0.00	29.818 
21:00	28.7	24.3	28.7	93	26.9	4	13	112	0.00	29.816 
21:05	28.7	24.3	28.7	93	26.9	4	10	90	0.00	29.816 
21:10	28.7	23.2	28.7	93	26.9	5	14	90	0.00	29.816 
21:15	28.7	22.3	28.7	93	26.9	6	14	45	0.00	29.810 
21:20	28.7	23.2	28.7	93	26.9	5	15	90	0.00	29.810 
21:25	28.8	23.3	28.8	93	27.0	5	16	90	0.00	29.810 
21:30	28.8	23.3	28.8	94	27.3	5	12	68	0.00	29.804 
21:35	28.8	23.3	28.8	94	27.3	5	13	68	0.00	29.804 
21:40	28.8	22.4	28.8	94	27.3	6	16	22	0.00	29.804 
21:45	28.8	23.3	28.8	94	27.3	5	18	45	0.00	29.804 
21:50	28.8	23.3	28.8	94	27.3	5	14	22	0.00	29.804 
21:55	28.8	24.4	28.8	94	27.3	4	10	68	0.00	29.804 
22:00	28.8	23.3	28.8	94	27.3	5	16	90	0.00	29.800 
22:05	28.8	24.4	28.8	94	27.3	4	14	68	0.00	29.800 
22:10	28.7	22.3	28.7	94	27.2	6	13	112	0.00	29.800 
22:15	28.7	23.2	28.7	94	27.2	5	14	90	0.00	29.798 
22:20	28.5	24.0	28.5	94	27.0	4	16	112	0.00	29.798 
22:25	28.5	23.0	28.5	94	27.0	5	10	22	0.00	29.798 
22:30	28.4	23.9	28.4	94	26.9	4	10	22	0.00	29.797 
22:35	28.4	23.9	28.4	94	26.9	4	14	45	0.00	29.797 
22:40	28.2	22.6	28.2	94	26.7	5	13	90	0.00	29.797 
22:45	28.2	22.6	28.2	94	26.7	5	13	45	0.00	29.792 
22:50	28.1	22.5	28.1	94	26.6	5	14	45	0.00	29.792 
22:55	28.1	22.5	28.1	94	26.6	5	15	45	0.00	29.792 
23:00	27.9	22.3	27.9	94	26.4	5	12	45	0.00	29.793 
23:05	27.9	23.3	27.9	94	26.4	4	18	90	0.00	29.793 
23:10	27.9	23.3	27.9	94	26.4	4	10	45	0.00	29.793 
23:15	27.8	23.2	27.8	94	26.3	4	13	22	0.00	29.793 
23:20	27.8	23.2	27.8	94	26.3	4	11	22	0.00	29.793 
23:25	27.8	22.1	27.8	94	26.3	5	13	45	0.00	29.793 
23:30	27.6	21.9	27.6	94	26.1	5	13	90	0.00	29.793 
23:35	27.6	21.9	27.6	94	26.1	5	12	45	0.00	29.793 
23:40	27.6	27.6	27.6	94	26.1	3	7	112	0.00	29.793 
23:45	27.5	22.9	27.5	94	26.0	4	12	45	0.00	29.800 
23:50	27.5	21.8	27.5	94	26.0	5	13	45	0.00	29.800 
23:55	27.3	21.6	27.3	94	25.8	5	15	22	0.00	29.800 

CoCoRaHS
IN-AL-39
A2 Web Hosting
Creative Commons License
GoDaddy
search engine by freefind advanced

loaded 2018-11-20 09:35:08 • last modified 2010-11-18 10:43:29
Privacy PolicyDisclaimer
• wx.awcolley.com is powered by PmWiki v.2002016 •
• all content (unless otherwise noted) © 2018 A W Colley